Weather History for Biloxi, MS

Change the Weather History Date:

Wednesday, September 11, 2013

  Actual Average Record
Temperature  
Mean Temperature 82 °F -  
Max Temperature 92 °F 87 °F 96 °F (1980)
Min Temperature 73 °F 71 °F 55 °F (1976)
Cooling Degree Days 17    
Growing Degree Days 32 (Base 50)    
Moisture  
Dew Point 71 °F    
Average Humidity 70    
Maximum Humidity 91    
Minimum Humidity 47    
Precipitation  
Precipitation 0.00 in - - ()
Sea Level Pressure  
Sea Level Pressure 30.09 in    
Wind  
Wind Speed 8 mph (East)    
Max Wind Speed 16 mph    
Max Gust Speed -    
Visibility 10 miles    
Events      
Averages and records for this station are not official NWS values.
T = Trace of Precipitation, MM = Missing Value Source: NWS Daily Summary

Daily Weather History Graph

Daily Weather History Graph

Search for Another Location

Airport:

Trip Planner

Search our weather history database for the weather conditions in past years. The results will help you decide how hot, cold, wet, or windy it might be!

Date:

Astronomy

Sep. 11, 2013 Rise Set
Actual Time 6:38 AM CDT 7:05 PM CDT
Civil Twilight 6:13 AM CDT 7:29 PM CDT
Nautical Twilight 5:45 AM CDT 7:58 PM CDT
Astronomical Twilight 5:16 AM CDT 8:26 PM CDT
Moon 12:39 PM CDT (9/11) 11:28 PM CDT (9/11)
Length of Visible Light 13h 16m
Length of Day
12h 27m
Waxing Crescent, 39% of the Moon is Illuminated
Sep 11
Waxing Crescent
Sep 12
First Quarter
Sep 19
Full
Sep 26
Last Quarter
Oct 4
New

Hourly Weather History & Observations

Time (CDT) Temp. Heat Index Dew Point Humidity Pressure Visibility Wind Dir Wind Speed Gust Speed Precip Events Conditions
12:58 AM 77.5 °F - 72.5 °F 84% 30.10 in 10.0 mi ENE 5.8 mph - N/A   Clear
1:58 AM 75.7 °F - 72.3 °F 89% 30.08 in 10.0 mi NE 6.9 mph - N/A   Clear
2:58 AM 75.2 °F - 71.8 °F 89% 30.08 in 10.0 mi ENE 5.8 mph - N/A   Clear
3:58 AM 74.7 °F - 71.6 °F 90% 30.09 in 10.0 mi NE 5.8 mph - N/A   Clear
4:58 AM 74.1 °F - 71.2 °F 91% 30.09 in 10.0 mi NE 5.8 mph - N/A   Clear
5:58 AM 73.9 °F - 71.1 °F 91% 30.10 in 10.0 mi NE 8.1 mph - N/A   Clear
6:58 AM 73.9 °F - 70.7 °F 90% 30.11 in 10.0 mi NE 6.9 mph - N/A   Clear
7:58 AM 76.5 °F - 70.7 °F 82% 30.13 in 10.0 mi NE 9.2 mph - N/A   Clear
8:58 AM 81.1 °F 84.9 °F 70.5 °F 70% 30.12 in 10.0 mi ENE 9.2 mph - N/A   Clear
9:58 AM 85.6 °F 90.8 °F 70.7 °F 61% 30.13 in 10.0 mi East 9.2 mph - N/A   Clear
10:58 AM 89.6 °F 93.9 °F 68.9 °F 50% 30.13 in 10.0 mi East 9.2 mph - N/A   Clear
11:58 AM 90.9 °F 94.8 °F 68.4 °F 47% 30.12 in 10.0 mi East 10.4 mph - N/A   Clear
12:58 PM 91.4 °F 98.9 °F 72.0 °F 53% 30.11 in 10.0 mi SSE 11.5 mph - N/A   Scattered Clouds
1:58 PM 88.7 °F 96.2 °F 72.7 °F 59% 30.09 in 10.0 mi SE 12.7 mph - N/A   Scattered Clouds
2:58 PM 90.9 °F 97.8 °F 71.8 °F 53% 30.07 in 10.0 mi SE 12.7 mph - N/A   Partly Cloudy
3:58 PM 89.4 °F 98.9 °F 74.3 °F 61% 30.06 in 10.0 mi SE 15.0 mph - N/A   Partly Cloudy
4:58 PM 88.0 °F 96.0 °F 73.4 °F 62% 30.06 in 10.0 mi SE 16.1 mph - N/A   Clear
5:58 PM 86.9 °F 92.9 °F 71.4 °F 60% 30.05 in 10.0 mi SE 12.7 mph - N/A   Clear
6:58 PM 84.9 °F 88.8 °F 68.9 °F 59% 30.05 in 10.0 mi SE 11.5 mph - N/A   Clear
7:58 PM 84.4 °F 88.2 °F 69.3 °F 60% 30.05 in 10.0 mi SE 8.1 mph - N/A   Clear
8:58 PM 84.0 °F 87.6 °F 68.9 °F 60% 30.07 in 10.0 mi SSE 9.2 mph - N/A   Clear
9:58 PM 83.7 °F 87.5 °F 69.4 °F 62% 30.08 in 10.0 mi SSE 5.8 mph - N/A   Clear
10:58 PM 82.9 °F 86.7 °F 69.4 °F 64% 30.07 in 10.0 mi SE 5.8 mph - N/A   Clear
11:58 PM 77.5 °F - 71.4 °F 81% 30.06 in 10.0 mi NE 3.5 mph - N/A   Clear